Location: Erraguntapalli
(18.7700°N, 79.7783°E)
Time: 11:20:10
(UTC+00:00)

Cosmos 1125 Rocket - Pass Details

Date: 15 November 2019
Orbit: 758 x 779 km, 74.0° (Epoch: 15 December)

Event Time Altitude Azimuth Distance (km) Brightness Sun altitude
Rises 00:05:17 0° 182° (S) 3,247 6.9 -10.4°
Reaches altitude 10° 00:07:43 10° 178° (S) 2,320 6.2 -9.8°
Maximum altitude 00:12:50 53° 102° (ESE) 944 4.5 -8.7°
Drops below altitude 10° 00:17:57 10° 26° (NNE) 2,318 6.1 -7.5°
Sets 00:20:22 0° 21° (NNE) 3,244 6.8 -6.9°
